Location: Endfield
(51.6667°N, 0.0667°W)
Time: 11:47:21
(UTC+00:00)

H-2A R/B - Pass Details

Date: 19 May 2024
Orbit: 514 x 612 km, 98.2° (Epoch: 14 June)

Event Time Altitude Azimuth Distance (km) Brightness Sun altitude
Exits shadow 22:03:00 19° 119° (ESE) 1,426 3.9 -14.1°
Maximum altitude 22:05:23 34° 65° (ENE) 978 3.5 -14.3°
Drops below altitude 10° 22:09:13 10° 1° (N) 1,950 6.1 -14.5°
Sets 22:11:33 0° 352° (N) 2,870 7.5 -14.7°
